Burns, OR

1:52 AM PDT on March 23, 2017 (GMT -0700)
Burns Municipal

Weather History for KBNO - January, 2013

Change the Weather History Date:

Sunday, January 6, 2013

  Actual Average Record
Temperature  
Mean Temperature 15 °F 24 °F  
Max Temperature 24 °F 34 °F 51 °F (1948)
Min Temperature 6 °F 14 °F -27 °F (1982)
Degree Days  
Heating Degree Days 50 41  
Month to date heating degree days 358 246  
Since 1 July heating degree days 3248 3513  
Cooling Degree Days 0 0  
Month to date cooling degree days 0 0  
Year to date cooling degree days 0 0  
Moisture  
Dew Point 12 °F    
Average Humidity 80    
Maximum Humidity 92    
Minimum Humidity 68    
Precipitation  
Precipitation 0.00 in 0.04 in 0.34 in (2002)
Month to date precipitation 0.00 0.26  
Year to date precipitation 0.00 0.26  
Sea Level Pressure  
Sea Level Pressure 30.25 in    
Wind  
Wind Speed 1 mph (WSW)    
Max Wind Speed 8 mph    
Max Gust Speed 9 mph    
Visibility 5 miles    
Events Fog    
T = Trace of Precipitation, MM = Missing Value Source: NWS Daily Summary

Daily Weather History Graph

Daily Weather History Graph

Search for Another Location

Airport or City:

Trip Planner

Search our weather history database for the weather conditions in past years. The results will help you decide how hot, cold, wet, or windy it might be!

Date:

Astronomy

Jan. 06, 2013 Rise Set
Actual Time 7:28 AM PST 4:35 PM PST
Civil Twilight 6:56 AM PST 5:07 PM PST
Nautical Twilight 6:20 AM PST 5:43 PM PST
Astronomical Twilight 5:46 AM PST 6:18 PM PST
Moon 1:44 AM PST (1/6) 12:08 PM PST (1/6)
Length of Visible Light 10h 10m
Length of Day
9h 06m
Waning Crescent, 32% of the Moon is Illuminated
Jan 6
Waning Crescent
Jan 11
New
Jan 18
First Quarter
Jan 26
Full
Feb 3
Last Quarter

Hourly Weather History & Observations

Time (PST) Temp. Windchill Dew Point Humidity Pressure Visibility Wind Dir Wind Speed Gust Speed Precip Events Conditions
12:48 AM 17.6 °F - 10.4 °F 73% 30.17 in 8.0 mi Calm Calm - N/A   Overcast
12:53 AM 17.1 °F - 10.9 °F 77% 30.31 in 9.0 mi Calm Calm - N/A   Overcast
1:53 AM 14.0 °F - 10.0 °F 84% 30.31 in 8.0 mi Calm Calm - N/A   Scattered Clouds
2:53 AM 7.0 °F - 3.9 °F 87% 30.33 in 6.0 mi Calm Calm - N/A   Mostly Cloudy
3:53 AM 12.0 °F - 8.1 °F 84% 30.29 in 7.0 mi Calm Calm - N/A   Overcast
4:53 AM 12.0 °F 5.9 °F 9.0 °F 88% 30.29 in 7.0 mi North 3.5 mph - N/A   Overcast
5:53 AM 16.0 °F - 10.9 °F 81% 30.29 in 7.0 mi Calm Calm - N/A   Overcast
6:53 AM 17.1 °F - 12.0 °F 81% 30.27 in 7.0 mi Calm Calm - N/A   Overcast
7:19 AM 17.6 °F 12.3 °F 12.2 °F 79% 30.14 in 7.0 mi SSW 3.5 mph - N/A   Overcast
7:53 AM 16.0 °F 6.3 °F 12.0 °F 84% 30.30 in 5.0 mi SSE 6.9 mph - N/A   Overcast
8:53 AM 17.1 °F - 12.0 °F 81% 30.32 in 5.0 mi Calm Calm - N/A   Haze
9:53 AM 19.0 °F - 12.9 °F 77% 30.32 in 6.0 mi Calm Calm - N/A   Haze
10:53 AM 19.9 °F - 12.9 °F 74% 30.30 in 7.0 mi Calm Calm - N/A   Overcast
11:53 AM 21.0 °F - 12.9 °F 71% 30.29 in 7.0 mi Calm Calm - N/A   Overcast
12:53 PM 21.9 °F - 12.9 °F 68% 30.26 in 8.0 mi Calm Calm - N/A   Overcast
1:36 PM 21.2 °F 16.4 °F 14.0 °F 74% 30.12 in 9.0 mi South 3.5 mph - N/A   Overcast
1:53 PM 21.9 °F - 14.0 °F 72% 30.26 in 9.0 mi Calm Calm - N/A   Overcast
2:53 PM 21.9 °F - 15.1 °F 75% 30.28 in 8.0 mi Calm Calm - N/A   Overcast
3:53 PM 23.0 °F - 15.1 °F 72% 30.27 in 9.0 mi Calm Calm - N/A   Overcast
4:53 PM 21.9 °F - 15.1 °F 75% 30.28 in 9.0 mi Calm Calm - N/A   Mostly Cloudy
5:09 PM 19.4 °F - 15.8 °F 86% 30.14 in 9.0 mi Calm Calm - N/A   Scattered Clouds
5:53 PM 15.1 °F - 12.0 °F 88% 30.28 in 8.0 mi Calm Calm - N/A   Clear
6:53 PM 7.0 °F - 3.9 °F 87% 30.34 in 4.0 mi Calm Calm - N/A   Scattered Clouds
7:04 PM 6.8 °F - 3.2 °F 85% 30.17 in 6.0 mi Calm Calm - N/A   Mostly Cloudy
7:25 PM 8.6 °F - 6.8 °F 92% 30.17 in 1.5 mi Calm Calm - N/A   Overcast
7:27 PM 8.6 °F - 6.8 °F 92% 30.17 in 0.8 mi Calm Calm - N/A   Overcast
7:40 PM 6.8 °F - 3.2 °F 85% 30.17 in 0.5 mi Calm Calm - N/A Fog Light Freezing Fog
7:53 PM 10.0 °F - 8.1 °F 92% 30.34 in 0.8 mi Calm Calm - N/A   Overcast
7:56 PM 10.4 °F - 8.6 °F 92% 30.17 in 1.5 mi Calm Calm - N/A   Overcast
7:59 PM 10.4 °F - 8.6 °F 92% 30.17 in 3.0 mi Calm Calm - N/A   Overcast
8:53 PM 14.0 °F 6.5 °F 10.9 °F 88% 30.32 in 7.0 mi North 4.6 mph - N/A   Overcast
9:05 PM 15.8 °F - 12.2 °F 86% 30.18 in 5.0 mi Calm Calm - N/A   Overcast
9:40 PM 17.6 °F - 15.8 °F 93% 30.18 in 2.5 mi Calm Calm - N/A   Overcast
9:53 PM 17.1 °F 11.7 °F 14.0 °F 88% 30.31 in 2.0 mi NNE 3.5 mph - N/A   Overcast
10:12 PM 17.6 °F - 15.8 °F 93% 30.18 in 1.8 mi Calm Calm - N/A   Overcast
10:24 PM 17.6 °F 12.3 °F 15.8 °F 93% 30.19 in 1.2 mi WSW 3.5 mph - N/A   Overcast
10:53 PM 17.1 °F 10.0 °F 15.1 °F 92% 30.33 in 1.0 mi West 4.6 mph - N/A   Mist
11:08 PM 17.6 °F - 15.8 °F 93% 30.19 in 0.8 mi Calm Calm - N/A   Mist
11:53 PM 19.0 °F - 17.1 °F 92% 30.29 in 0.8 mi Calm Calm - N/A   Mist